LGAVLGKR

Guest
Details From LGAV - Athens Intl Airport Elefterios Venizel
To LGKR - IOANNIS KAPODISTRIAS INTL
Flight Number -
Tags decoded
Created
Modified
Stats Distance 214 nm / 397 km
Max Altitude 0 ft / 0 m
Waypoints 4
Social Downloads 0
Likes 0
Share VATSIM

Download

Looking for another format? Having issues loading an existing format? Contact us
Advertisement - Login to hide

Notes

Requested: LGAV GERMI UL995 VARDI LGKR

Route

LGAV GERMI UL995 VARDI LGKR

ID Type Via Altitude Latitude Longitude Leg Dist Tot Dist Heading (true) Name
O LGAV APT - 0 ft / 0 m 37.93636˚ 23.94447˚ - 0 nm - Athens Intl Airport Elefterios Venizel
GERMI FIX - 0 ft / 0 m 38.16556˚ 23.12444˚ 41 nm 41 nm 290° / 289° -
VARDI FIX UL995 (AWY-HI) 0 ft / 0 m 38.67194˚ 21.95111˚ 63 nm 104 nm 299° / 298° -
O LGKR APT - 0 ft / 0 m 39.60178˚ 19.91191˚ 110 nm 214 nm 301° / 300° IOANNIS KAPODISTRIAS INTL

Altitude Profile

Advertisement - Login to hide

Weather


0- 5 10 15 20 25 30 35+ Temperature / ° C

Clouds and Precipitation
Forecast for 2017-12-17 00:00 UTC. Updated 3 minutes ago

Ground ~20,000 ft ~40,000 ft Winds

LGAV

Details ICAO LGAV (ATH)
Name Athens Intl Airport Elefterios Venizel
Region Greece
Timezone Europe/Athens (UTC+2.0)
Stats Elevation 308 ft / 94 m (AMSL)
Location 37.936357° 23.944470°
Runways 2
Magnetic Variation 4.485° E

METAR

LGAV 161850Z 17014KT 9999 FEW015 BKN030 BKN070 16/12 Q1011 NOSIG

Decode

TAF

TAF TAF LGAV 161700Z 1618/1718 19018G30KT 9999 FEW018 SCT025 BKN070 PROB40 TEMPO 1618/1709 4000 RA SCT015 OVC070 PROB30 TEMPO 1620/1706 3000 TSRA SCT012 FEW018CB OVC070 BECMG 1702/1704 22015G25KT BECMG 1706/1708 25012KT

Decode

Departure Runways

ID Width Length Bearing (true) Bearing (mag) Surface Threshold Offset Overrun Length
03L 148 ft / 45 m 12,474 ft / 3,802 m 36.51° 32.03° Asphalt 984 ft / 300 m 393 ft / 120 m
03R 148 ft / 45 m 13,131 ft / 4,002 m 36.52° 32.04° Asphalt 984 ft / 300 m 393 ft / 120 m
21L 148 ft / 45 m 13,131 ft / 4,002 m 216.54° 212.06° Asphalt 984 ft / 300 m 393 ft / 120 m
21R 148 ft / 45 m 12,474 ft / 3,802 m 216.53° 212.05° Asphalt 984 ft / 300 m 393 ft / 120 m

LGKR

Details ICAO LGKR (CFU)
Name IOANNIS KAPODISTRIAS INTL
Region Greece
Timezone Europe/Athens (UTC+2.0)
Stats Elevation 6 ft / 2 m (AMSL)
Location 39.601779° 19.911908°
Runways 1
Magnetic Variation 4.099° E

METAR

LGKR 161850Z 17003KT 9999 FEW012 FEW018TCU BKN030 OVC080 13/12 Q1008 NOSIG

Decode

TAF

TAF LGKR 161700Z 1618/1718 19012KT 9999 FEW010 SCT016 BKN020 TEMPO 1618/1704 5000 RA PROB40 TEMPO 1618/1702 3000 TSRA SCT010 FEW018CB BKN020 OVC080 BECMG 1702/1704 31012KT

Decode

Destination Runways

ID Width Length Bearing (true) Bearing (mag) Surface Threshold Offset Overrun Length
17 148 ft / 45 m 7,815 ft / 2,382 m 168.81° 164.71° Asphalt 1,348 ft / 411 m 0 ft / 0 m
35 148 ft / 45 m 7,815 ft / 2,382 m 348.81° 344.71° Asphalt 213 ft / 65 m 0 ft / 0 m

Popular Alternatives